Weather History for KMGC - September, 2013

Change the Weather History Date:

Wednesday, September 4, 2013

  Actual Average (KVPZ) Record (KVPZ)
Temperature  
Mean Temperature 64 °F 68 °F  
Max Temperature 78 °F 78 °F 93 °F (1999)
Min Temperature 50 °F 57 °F 49 °F (2005)
Degree Days  
Heating Degree Days 1 1  
Month to date heating degree days 4  
Since 1 July heating degree days 21  
Cooling Degree Days 0 4  
Month to date cooling degree days 16  
Year to date cooling degree days 652  
Growing Degree Days 14 (Base 50)    
Moisture  
Dew Point 55 °F    
Average Humidity 77    
Maximum Humidity 100    
Minimum Humidity 39    
Precipitation  
Precipitation 0.00 in 0.12 in 2.29 in (2008)
Month to date precipitation 0.54  
Year to date precipitation 26.08  
Sea Level Pressure  
Sea Level Pressure 30.11 in    
Wind  
Wind Speed 2 mph (West)    
Max Wind Speed 10 mph    
Max Gust Speed 17 mph    
Visibility 8 miles    
Events Fog    
T = Trace of Precipitation, MM = Missing Value Source: NWS Daily Summary

Daily Weather History Graph

Daily Weather History Graph

Search for Another Location

Airport or City:

Trip Planner

Search our weather history database for the weather conditions in past years. The results will help you decide how hot, cold, wet, or windy it might be!

Date:

Astronomy

Sep. 04, 2013 Rise Set
Actual Time 6:16 AM CDT 7:15 PM CDT
Civil Twilight 5:48 AM CDT 7:43 PM CDT
Nautical Twilight 5:14 AM CDT 8:17 PM CDT
Astronomical Twilight 4:39 AM CDT 8:52 PM CDT
Moon 5:28 AM CDT (9/4) 6:34 PM CDT (9/4)
Length of Visible Light 13h 55m
Length of Day
12h 58m
Waning Crescent, 1% of the Moon is Illuminated
Sep 4
Waning Crescent
Sep 5
New
Sep 12
First Quarter
Sep 19
Full
Sep 26
Last Quarter

Hourly Weather History & Observations

Time (CDT) Temp. Dew Point Humidity Pressure Visibility Wind Dir Wind Speed Gust Speed Precip Events Conditions
12:15 AM 53.6 °F 53.6 °F 100% 30.06 in 10.0 mi Calm Calm - N/A   Clear
12:35 AM 53.6 °F 51.8 °F 94% 30.06 in 3.0 mi Calm Calm - N/A   Clear
12:55 AM 53.6 °F 51.8 °F 94% 30.07 in 4.0 mi Calm Calm - N/A   Clear
1:15 AM 53.6 °F 51.8 °F 94% 30.07 in 7.0 mi Calm Calm - N/A   Clear
1:35 AM 51.8 °F 51.8 °F 100% 30.07 in 1.0 mi Calm Calm - N/A   Mist
1:55 AM 51.8 °F 51.8 °F 100% 30.08 in 1.2 mi Calm Calm - N/A   Mist
2:15 AM 51.8 °F 51.8 °F 100% 30.08 in 1.2 mi Calm Calm - N/A   Mist
2:35 AM 51.8 °F 51.8 °F 100% 30.08 in 1.0 mi Calm Calm - N/A   Mist
2:55 AM 51.8 °F 51.8 °F 100% 30.09 in 1.8 mi Calm Calm - N/A   Mist
3:15 AM 51.8 °F 51.8 °F 100% 30.09 in 0.8 mi Calm Calm - N/A   Mist
3:35 AM 51.8 °F 50.0 °F 94% 30.09 in 1.0 mi Calm Calm - N/A   Mist
3:55 AM 51.8 °F 51.8 °F 100% 30.09 in 0.8 mi Calm Calm - N/A   Mostly Cloudy
4:15 AM 51.8 °F 51.8 °F 100% 30.10 in 1.5 mi Calm Calm - N/A   Scattered Clouds
4:35 AM 51.8 °F 50.0 °F 94% 30.10 in 0.5 mi Calm Calm - N/A Fog Fog
4:55 AM 50.0 °F 50.0 °F 100% 30.10 in 0.5 mi Calm Calm - N/A Fog Fog
5:15 AM 51.8 °F 51.8 °F 100% 30.10 in 5.0 mi Calm Calm - N/A   Clear
5:35 AM 51.8 °F 50.0 °F 94% 30.11 in 0.5 mi Calm Calm - N/A Fog Fog
5:55 AM 51.8 °F 51.8 °F 100% 30.11 in 1.8 mi Calm Calm - N/A   Mist
6:15 AM 51.8 °F 51.8 °F 100% 30.11 in 10.0 mi SSW 3.5 mph - N/A   Clear
6:35 AM 53.6 °F 53.6 °F 100% 30.12 in 10.0 mi SSW 3.5 mph - N/A   Clear
6:55 AM 53.6 °F 53.6 °F 100% 30.12 in 10.0 mi SW 4.6 mph - N/A   Clear
7:15 AM 55.4 °F 55.4 °F 100% 30.13 in 10.0 mi SSW 4.6 mph - N/A   Clear
7:35 AM 57.2 °F 55.4 °F 94% 30.13 in 10.0 mi SSW 4.6 mph - N/A   Clear
7:55 AM 59.0 °F 55.4 °F 88% 30.13 in 10.0 mi SW 4.6 mph - N/A   Clear
8:15 AM 60.8 °F 57.2 °F 88% 30.13 in 10.0 mi SW 4.6 mph - N/A   Clear
8:35 AM 64.4 °F 59.0 °F 83% 30.13 in 10.0 mi WSW 4.6 mph - N/A   Clear
8:55 AM 66.2 °F 59.0 °F 78% 30.13 in 10.0 mi WSW 5.8 mph - N/A   Clear
9:15 AM 68.0 °F 59.0 °F 73% 30.13 in 10.0 mi West 4.6 mph - N/A   Clear
9:35 AM 69.8 °F 59.0 °F 68% 30.13 in 10.0 mi WSW 6.9 mph - N/A   Clear
9:55 AM 71.6 °F 59.0 °F 64% 30.13 in 10.0 mi West 5.8 mph - N/A   Clear
10:15 AM 71.6 °F 55.4 °F 57% 30.13 in 10.0 mi WSW 8.1 mph - N/A   Clear
10:35 AM 71.6 °F 55.4 °F 57% 30.14 in 10.0 mi West 8.1 mph 17.3 mph N/A   Clear
10:55 AM 71.6 °F 55.4 °F 57% 30.15 in 10.0 mi WNW 10.4 mph 17.3 mph N/A   Clear
11:15 AM 71.6 °F 55.4 °F 57% 30.15 in 10.0 mi West 9.2 mph 16.1 mph N/A   Clear
11:35 AM 73.4 °F 55.4 °F 53% 30.14 in 10.0 mi West 9.2 mph - N/A   Clear
11:55 AM 73.4 °F 53.6 °F 50% 30.14 in 10.0 mi West 8.1 mph - N/A   Clear
12:15 PM 73.4 °F 53.6 °F 50% 30.13 in 10.0 mi WNW 9.2 mph - N/A   Clear
12:35 PM 73.4 °F 53.6 °F 50% 30.13 in 10.0 mi NW 9.2 mph - N/A   Clear
12:55 PM 75.2 °F 53.6 °F 47% 30.13 in 10.0 mi NW 5.8 mph - N/A   Clear
1:15 PM 75.2 °F 53.6 °F 47% 30.13 in 10.0 mi WNW 8.1 mph - N/A   Clear
1:35 PM 77.0 °F 55.4 °F 47% 30.13 in 10.0 mi NNW 9.2 mph - N/A   Clear
1:55 PM 77.0 °F 53.6 °F 44% 30.13 in 10.0 mi NW 8.1 mph - N/A   Clear
2:15 PM 77.0 °F 53.6 °F 44% 30.12 in 10.0 mi West 5.8 mph - N/A   Clear
2:35 PM 77.0 °F 53.6 °F 44% 30.12 in 10.0 mi West 6.9 mph - N/A   Clear
2:55 PM 77.0 °F 53.6 °F 44% 30.11 in 10.0 mi NW 4.6 mph - N/A   Clear
3:15 PM 78.8 °F 51.8 °F 39% 30.12 in 10.0 mi WNW 6.9 mph - N/A   Clear
3:35 PM 78.8 °F 53.6 °F 42% 30.11 in 10.0 mi WNW 6.9 mph - N/A   Clear
3:55 PM 77.0 °F 53.6 °F 44% 30.10 in 10.0 mi West 4.6 mph - N/A   Clear
4:15 PM 77.0 °F 51.8 °F 41% 30.10 in 10.0 mi NW 3.5 mph - N/A   Clear
4:35 PM 77.0 °F 53.6 °F 44% 30.09 in 10.0 mi Calm Calm - N/A   Clear
4:55 PM 78.8 °F 51.8 °F 39% 30.09 in 10.0 mi West 3.5 mph - N/A   Clear
5:15 PM 78.8 °F 53.6 °F 42% 30.08 in 10.0 mi Calm Calm - N/A   Clear
5:35 PM 77.0 °F 55.4 °F 47% 30.09 in 10.0 mi Calm Calm - N/A   Clear
5:55 PM 77.0 °F 55.4 °F 47% 30.09 in 10.0 mi Calm Calm - N/A   Clear
6:15 PM 73.4 °F 59.0 °F 61% 30.09 in 10.0 mi Calm Calm - N/A   Clear
6:35 PM 69.8 °F 59.0 °F 68% 30.08 in 10.0 mi Calm Calm - N/A   Clear
6:55 PM 66.2 °F 60.8 °F 83% 30.09 in 10.0 mi Calm Calm - N/A   Clear
7:15 PM 64.4 °F 60.8 °F 88% 30.09 in 10.0 mi Calm Calm - N/A   Clear
7:35 PM 64.4 °F 59.0 °F 83% 30.10 in 10.0 mi Calm Calm - N/A   Clear
7:55 PM 64.4 °F 59.0 °F 83% 30.11 in 10.0 mi Calm Calm - N/A   Clear
8:15 PM 64.4 °F 60.8 °F 88% 30.11 in 10.0 mi Calm Calm - N/A   Clear
8:35 PM 62.6 °F 60.8 °F 94% 30.12 in 10.0 mi Calm Calm - N/A   Clear
8:55 PM 62.6 °F 60.8 °F 94% 30.12 in 10.0 mi Calm Calm - N/A   Clear
9:15 PM 62.6 °F 59.0 °F 88% 30.12 in 10.0 mi Calm Calm - N/A   Clear
9:35 PM 60.8 °F 60.8 °F 100% 30.12 in 10.0 mi Calm Calm - N/A   Clear
9:55 PM 60.8 °F 59.0 °F 94% 30.12 in 10.0 mi Calm Calm - N/A   Clear
10:15 PM 60.8 °F 59.0 °F 94% 30.12 in 3.0 mi Calm Calm - N/A   Clear
10:35 PM 60.8 °F 59.0 °F 94% 30.12 in 4.0 mi Calm Calm - N/A   Clear
10:55 PM 59.0 °F 59.0 °F 100% 30.12 in 7.0 mi Calm Calm - N/A   Clear
11:15 PM 59.0 °F 57.2 °F 94% 30.12 in 7.0 mi Calm Calm - N/A   Clear
11:35 PM 59.0 °F 57.2 °F 94% 30.12 in 10.0 mi Calm Calm - N/A   Clear
11:55 PM 59.0 °F 57.2 °F 94% 30.12 in 1.2 mi Calm Calm - N/A   Mist